Location: Beutels
(47.8767°N, 9.8584°E)
Time: 21:23:24
(UTC+00:00)

Sich 1 - Pass Details

Date: 19 May 2025
Orbit: 574 x 603 km, 82.5° (Epoch: 15 June)

Event Time Altitude Azimuth Distance (km) Brightness Sun altitude
Rises 22:31:32 0° 351° (N) 2,835 8.0 -21.4°
Reaches altitude 10° 22:33:46 10° 352° (N) 1,924 6.8 -21.5°
Maximum altitude 22:38:01 85° 81° (E) 593 2.8 -21.6°
Enters shadow 22:38:30 69° 156° (SSE) 627 2.8 -21.6°
